Location: Caixon
(43.4106°N, 0.0273°E)
Time: 14:45:24
(UTC+00:00)

Cosmos 1821 Rocket - Pass Details

Date: 16 October 2021
Orbit: 944 x 1005 km, 82.9° (Epoch: 28 November)

Event Time Altitude Azimuth Distance (km) Brightness Sun altitude
Rises 05:37:05 0° 351° (N) 3,702 6.9 -7.7°
Reaches altitude 10° 05:39:38 10° 352° (N) 2,741 6.2 -7.2°
Maximum altitude 05:45:55 88° 264° (W) 975 4.1 -6.1°
Drops below altitude 10° 05:52:04 10° 175° (S) 2,681 6.5 -5.0°
Sets 05:54:32 0° 175° (S) 3,615 7.2 -4.5°
